ASIASAT 9 (42942 NORAD) Tracking and Keplerian Element Data

This shows tracking and keplerian element data for the satellite.

Feedback or suggestion? Click here.




ElementValue
Catalog42942
NameASIASAT 9
Epoch Orbit2453
Epoch Day160.09146727
Epoch Year2024
RAAN3.7157
Inclination0.0134
Eccentricity0.0002225
Argument of Perigee69.7674
Mean Anonmoly338.5062
Mean Motion1.00270215
Decay Rate-3.6E-06
L11 42942U 17057A 24160.09146727 -.00000360 00000+0 00000+0 0 9998
L22 42942 0.0134 3.7157 0002225 69.7674 338.5062 1.00270215 24533



Live tracking and technical data element details for ASIASAT 9 (NORAD 42942). ASIASAT 9 can be tracked NOW for your location showing map with azimuth and elevation plus other details from your city location.







IsCatalogInMostPopularTable: catalog: 42942, numindb: 685
Update: records affected: 1



GetName: 42942 ASIASAT 9

Hit Count: updated at: Mon, 17 Jun 2024 22:40:29 GMT